Location: Newark
(55.7083°N, 13.1992°E)
Time: 14:39:40
(UTC+00:00)

Transit 4A - Pass Details

Date: 20 February 2020
Orbit: 871 x 973 km, 66.8° (Epoch: 06 April)

Event Time Altitude Azimuth Distance (km) Brightness Sun altitude
Exits shadow 03:12:00 31° 329° (NNW) 1,507 8.9 -27.0°
Maximum altitude 03:12:44 32° 344° (NNW) 1,477 8.9 -26.9°
Drops below altitude 10° 03:17:55 10° 46° (NE) 2,532 11.0 -26.3°
Sets 03:20:42 0° 57° (ENE) 3,476 12.1 -25.9°
